Weather in Kipiyevo

Russia / Komi Republic     65°39′27″N   54°30′12″E
temp.,
°C
wind,
m/s
gust,
m/s
humid.,
%
clouds,
%
prec.,
mm/h
press.,
hPa
HPBL,
m
19 september, sun
sun1900:00+3n51273100 0.0 10201464
03:00+3n51275100 0.0 10201518
06:00+3n51274100 0.0 10201490
09:00+4n61272100 0.1 10211431
12:00+4n61270100 0.1 10221400
15:00+4n61168100 0.1 10241329
18:00+4n51165100 0.0 10251268
21:00+4n41069100 0.0 10261183
20 september, mon
mon2000:00+4n5966100 0.0 10281146
03:00+4n4870100 0.0 10291001
06:00+4n3770100 0.0 1031876
09:00+4n3666100 0.0 10321231
12:00+5nnw3663100 0.0 10331241
15:00+5nw3671100 0.0 1033934
18:00+4nw2773100 0.0 1032298
21:00+3wnw2783100 0.0 1032184
21 september, tue
tue2100:00+3wnw31090100 0.0 1032329
03:00+3wnw31187100 0.0 1031428
06:00+3nw3119123 0.0 1030436
09:00+6nw486927 0.0 1030597
12:00+8nw475959 0.0 1029800
15:00+9nnw375966 0.0 1029884
18:00+5nw277886 0.0 1029151
21:00+5nw2877100 0.0 1028247
22 september, wed
wed2200:00+4nnw2680100 0.0 1029214
03:00+2nw2491100 0.0 1029106
06:00+2nw269198 0.0 1029170
09:00+7nnw24665 0.0 1029430
12:00+9n235116 0.0 1029757
15:00+10nnw12505 0.0 1029790
18:00+4n11755 0.0 102910
21:00+2e00835 0.0 102910
23 september, thu
thu2300:00+1ssw11875 0.0 102910
03:00+1ssw22910 0.0 102911
06:000s22916 0.0 102930
09:00+6s246514 0.0 1028305
12:00+10s35515 0.0 1027649
15:00+10s37578 0.0 1025754
18:00+6s27900 0.0 1024130
21:00+4s29945 0.0 1024188